FENGYUN 1C DEB, 30053

Orbit data source: Space-Track

FENGYUN 1C DEB, 30053 is space debris in SSO originally from a launch on Mon, 10 May 1999 UTC launched from the Taiyaun Space Center, China (TSC). Fengyun 1C debris stems from the Chinese weather satellite Fengyun-1C, which was intentionally destroyed by a Chinese anti-satellite missile in 2007. This event dramatically increased the amount of space debris, with thousands of trackable fragments posing hazards to satellites and human spaceflight. The Fengyun 1C debris cloud has become a focal point in discussions about space sustainability and the need for international regulations to prevent the creation of new debris.

Loading next visibility...
Identifier
30053, 1999-025PE
Orbit
SSO
Country
Flag of CNCN / PRC
Related business
Manufacturer
Unknown
Mission
Spacecraft
Bus & Motor
Unknown
Mass
Unknown
Launch date (UTC)
1999-05-10 (27 years ago)
Launch vehicle
Unknown
Launch site
Taiyaun Space Center, China (TSC)
Object type
Payload
Rocket body
Debris
Shape & HBR
Unknown shape, 0.1 m
Radar Cross Section
Small (<0.1 m²)

Expand to show TLE details & history
Last TLE update: 19 hours ago

TLE from 19 hours ago
0 FENGYUN 1C DEB
1 30053U 99025PE  25352.46673043  .00002528  00000-0  12283-2 0  9991
2 30053  98.5755 165.1791 0331444 322.4706  88.9986 13.94169444950664
Epoch: 2025-12-18T11:12Z
TLE epoch observation values (Epoch: 2025-12-18T11:12:05.509Z)
Latitude
54.45198°
Longitude
-102.28417°
Altitude
926.783 km
Speed
7.392 km/s
True Right ascension
10h 12m 14s
True Declination
54° 17' 34"
Sunlit
Object was in full shadow at epoch
Visualization orbit readout
Latitude
Unknown
Longitude
Unknown
Altitude
Unknown
Speed
Unknown
Apparent Right ascension
Unknown
Apparent Declination
Unknown
Sunlit
N/A
Visualization observer readout
Local Sidereal Time
04:44:24
Azimuth
Unknown
Elevation
Unknown
Doppler factor
Unknown
Orbital elements
Apogee altitude
1,152.84 km
Perigee altitude
669.636 km
Semi-major axis
7,289.375 km
Eccentricity
0.03314
Inclination
98.5755°
RAAN
165.1791°
Arg. of periapsis
322.4706°
True anomaly
92.79606°
Mean anomaly
88.9986°
Eccentric anomaly
90.8974°
Mean motion
3.48745 °/min
Orbital period
103.23 mins
BSTAR
0.0012283
Loading maneuver chart data...
Computing Atmospheric mass density...

Documentation

Showing up to 5 results
|